When you browse on this site, cookies collect data to enhance your experience and personalize the content and advertising you see.
Visit our Privacy Policy to learn more. By continuing to use the site, you agree to this use of cookies and data.
  • In Hungary
  • List of Countries
  • For 7 days
  • Water Temperature
  • Satellite Maps
  • Weather Map
  • News
  • Weather Widgets
  • user-avatar
    Login

    Hourly Weather Krasnyy Steklovar

    Today, 20 November, Tuesday

    Time Temperature Precipitation Wind Pressure Humidity
    00:00 -2°C° 0 mm 3 mps 760 mmHg 91%
    01:00 -2°C° 0 mm 3 mps 760 mmHg 91%
    02:00 -4°C° 0 mm 3 mps 760 mmHg 91%
    03:00 -3°C° 0 mm 2 mps 760 mmHg 93%
    04:00 -3°C° 0 mm 2 mps 760 mmHg 93%
    05:00 -4°C° 0 mm 2 mps 760 mmHg 93%
    06:00 -4°C° 0 mm 2 mps 760 mmHg 93%
    07:00 -4°C° 0 mm 2 mps 760 mmHg 91%
    08:00 -4°C° 0 mm 2 mps 759 mmHg 90%
    09:00 -4°C° 0 mm 2 mps 759 mmHg 87%
    10:00 -3°C° 0 mm 2 mps 759 mmHg 84%
    11:00 -3°C° 0 mm 2 mps 759 mmHg 81%
    12:00 -3°C° 0 mm 2 mps 758 mmHg 78%
    13:00 -3°C° 0 mm 2 mps 758 mmHg 78%
    14:00 -3°C° 0 mm 2 mps 758 mmHg 78%
    15:00 -3°C° 0 mm 2 mps 757 mmHg 78%
    16:00 -4°C° 0 mm 3 mps 757 mmHg 79%
    17:00 -4°C° 0 mm 3 mps 756 mmHg 79%
    18:00 -4°C° 0 mm 3 mps 756 mmHg 80%
    19:00 -4°C° 0.1 mm 3 mps 755 mmHg 80%
    20:00 -5°C° 0.1 mm 4 mps 754 mmHg 81%
    21:00 -5°C° 0.1 mm 4 mps 754 mmHg 82%
    22:00 -5°C° 0 mm 4 mps 753 mmHg 81%
    23:00 -5°C° 0 mm 4 mps 752 mmHg 81%

    Tomorrow, 21 November, Wednesday

    Time Temperature Precipitation Wind Pressure Humidity
    00:00 -5°C° 0 mm 4 mps 752 mmHg 80%
    01:00 -6°C° 0 mm 5 mps 751 mmHg 80%
    02:00 -6°C° 0 mm 5 mps 751 mmHg 79%
    03:00 -6°C° 0 mm 5 mps 750 mmHg 78%
    04:00 -6°C° 0.1 mm 5 mps 749 mmHg 79%
    05:00 -6°C° 0.1 mm 5 mps 749 mmHg 80%
    06:00 -5°C° 0.1 mm 5 mps 748 mmHg 81%
    07:00 -5°C° 0.1 mm 5 mps 748 mmHg 81%
    08:00 -5°C° 0.1 mm 5 mps 747 mmHg 82%
    09:00 -4°C° 0.1 mm 5 mps 747 mmHg 83%
    10:00 -4°C° 0.1 mm 6 mps 747 mmHg 79%
    11:00 -4°C° 0.1 mm 6 mps 747 mmHg 75%
    12:00 -3°C° 0.1 mm 7 mps 747 mmHg 72%
    13:00 -4°C° 0 mm 6 mps 747 mmHg 69%
    14:00 -5°C° 0 mm 6 mps 748 mmHg 66%
    15:00 -6°C° 0 mm 6 mps 748 mmHg 63%
    16:00 -6°C° 0 mm 5 mps 748 mmHg 65%
    17:00 -6°C° 0 mm 5 mps 748 mmHg 67%
    18:00 -7°C° 0 mm 5 mps 749 mmHg 70%
    19:00 -7°C° 0 mm 5 mps 749 mmHg 71%
    20:00 -7°C° 0 mm 5 mps 749 mmHg 73%
    21:00 -8°C° 0 mm 5 mps 749 mmHg 75%
    22:00 -8°C° 0 mm 5 mps 749 mmHg 76%
    23:00 -8°C° 0 mm 5 mps 749 mmHg 78%

    Day after tomorrow, 22 November, Thursday

    Time Temperature Precipitation Wind Pressure Humidity
    00:00 -8°C° 0 mm 5 mps 748 mmHg 79%
    01:00 -8°C° 0 mm 5 mps 748 mmHg 81%
    02:00 -8°C° 0 mm 4 mps 748 mmHg 82%
    03:00 -8°C° 0 mm 4 mps 748 mmHg 83%
    04:00 -8°C° 0.1 mm 4 mps 748 mmHg 86%
    05:00 -7°C° 0.1 mm 3 mps 747 mmHg 88%
    06:00 -7°C° 0.1 mm 3 mps 747 mmHg 90%
    07:00 -7°C° 0.1 mm 3 mps 747 mmHg 89%
    08:00 -6°C° 0.1 mm 3 mps 746 mmHg 88%
    09:00 -7°C° 0.1 mm 4 mps 746 mmHg 87%
    10:00 -7°C° 0.3 mm 4 mps 745 mmHg 87%
    11:00 -6°C° 0.3 mm 5 mps 744 mmHg 87%
    12:00 -6°C° 0.3 mm 6 mps 743 mmHg 86%
    13:00 -6°C° 0.5 mm 6 mps 742 mmHg 86%
    14:00 -7°C° 0.5 mm 7 mps 742 mmHg 85%
    15:00 -7°C° 0.5 mm 7 mps 741 mmHg 85%
    16:00 -7°C° 0.2 mm 7 mps 740 mmHg 85%
    17:00 -5°C° 0.2 mm 6 mps 740 mmHg 84%
    18:00 -5°C° 0.2 mm 6 mps 739 mmHg 84%
    19:00 -5°C° 0.3 mm 5 mps 738 mmHg 87%
    20:00 -4°C° 0.3 mm 4 mps 738 mmHg 90%
    21:00 -5°C° 0.3 mm 4 mps 737 mmHg 93%
    22:00 -5°C° 1 mm 4 mps 736 mmHg 93%
    23:00 -5°C° 1 mm 4 mps 736 mmHg 93%

    23 November, Friday

    Time Temperature Precipitation Wind Pressure Humidity
    00:00 -5°C° 1 mm 4 mps 736 mmHg 93%
    01:00 -7°C° 0.9 mm 5 mps 736 mmHg 91%
    02:00 -8°C° 0.9 mm 7 mps 736 mmHg 89%
    03:00 -10°C° 0.9 mm 8 mps 737 mmHg 88%
    04:00 -9°C° 0.2 mm 7 mps 738 mmHg 86%
    05:00 -11°C° 0.2 mm 7 mps 739 mmHg 84%
    06:00 -11°C° 0.2 mm 7 mps 740 mmHg 82%
    07:00 -11°C° 0 mm 7 mps 742 mmHg 79%
    08:00 -12°C° 0 mm 7 mps 743 mmHg 77%
    09:00 -12°C° 0 mm 7 mps 745 mmHg 74%
    10:00 -12°C° 0 mm 7 mps 746 mmHg 75%
    11:00 -12°C° 0 mm 7 mps 747 mmHg 76%
    12:00 -11°C° 0 mm 6 mps 748 mmHg 77%
    13:00 -11°C° 0 mm 6 mps 749 mmHg 78%
    14:00 -11°C° 0 mm 6 mps 750 mmHg 79%
    15:00 -11°C° 0 mm 6 mps 750 mmHg 80%
    16:00 -11°C° 0 mm 5 mps 751 mmHg 81%
    17:00 -12°C° 0 mm 5 mps 752 mmHg 83%
    18:00 -11°C° 0 mm 4 mps 752 mmHg 85%
    19:00 -12°C° 0 mm 4 mps 752 mmHg 87%
    20:00 -12°C° 0 mm 4 mps 753 mmHg 89%
    21:00 -12°C° 0 mm 3 mps 753 mmHg 91%
    22:00 -12°C° 0 mm 3 mps 753 mmHg 91%
    23:00 -12°C° 0 mm 3 mps 753 mmHg 92%

    24 November, Saturday

    Time Temperature Precipitation Wind Pressure Humidity
    00:00 -10°C° 0 mm 3 mps 753 mmHg 92%
    01:00 -11°C° 0 mm 4 mps 753 mmHg 91%
    02:00 -10°C° 0 mm 4 mps 753 mmHg 90%
    03:00 -10°C° 0 mm 4 mps 753 mmHg 89%
    04:00 -10°C° 0 mm 4 mps 753 mmHg 89%
    05:00 -10°C° 0 mm 4 mps 752 mmHg 89%
    06:00 -11°C° 0 mm 4 mps 752 mmHg 89%
    07:00 -11°C° 0 mm 5 mps 752 mmHg 89%
    08:00 -10°C° 0 mm 5 mps 751 mmHg 88%
    09:00 -10°C° 0 mm 5 mps 751 mmHg 87%
    10:00 -9°C° 0 mm 6 mps 751 mmHg 86%
    11:00 -9°C° 0 mm 6 mps 751 mmHg 85%
    12:00 -9°C° 0 mm 6 mps 750 mmHg 84%
    13:00 -8°C° 0.1 mm 6 mps 750 mmHg 84%
    14:00 -8°C° 0.1 mm 6 mps 750 mmHg 84%
    15:00 -8°C° 0.1 mm 6 mps 749 mmHg 84%
    16:00 -8°C° 0 mm 6 mps 749 mmHg 84%
    17:00 -8°C° 0 mm 6 mps 749 mmHg 85%
    18:00 -6°C° 0 mm 6 mps 748 mmHg 85%
    19:00 -6°C° 0 mm 6 mps 748 mmHg 85%
    20:00 -6°C° 0 mm 6 mps 747 mmHg 85%
    21:00 -6°C° 0 mm 6 mps 747 mmHg 85%
    22:00 -6°C° 0.1 mm 6 mps 747 mmHg 84%
    23:00 -6°C° 0.1 mm 6 mps 747 mmHg 84%

    25 November, Sunday

    Time Temperature Precipitation Wind Pressure Humidity
    00:00 -6°C° 0.1 mm 6 mps 747 mmHg 83%
    01:00 -6°C° 0 mm 6 mps 747 mmHg 84%
    02:00 -6°C° 0 mm 6 mps 747 mmHg 84%
    03:00 -6°C° 0 mm 6 mps 747 mmHg 84%
    04:00 -6°C° 0 mm 6 mps 747 mmHg 85%
    05:00 -6°C° 0 mm 6 mps 747 mmHg 85%
    06:00 -6°C° 0 mm 5 mps 748 mmHg 85%
    07:00 -6°C° 0 mm 5 mps 748 mmHg 86%
    08:00 -6°C° 0 mm 5 mps 749 mmHg 87%
    09:00 -6°C° 0 mm 5 mps 749 mmHg 88%
    10:00 -6°C° 0 mm 5 mps 750 mmHg 88%
    11:00 -5°C° 0 mm 4 mps 750 mmHg 87%
    12:00 -4°C° 0 mm 4 mps 750 mmHg 87%
    13:00 -5°C° 0 mm 4 mps 750 mmHg 88%
    14:00 -5°C° 0 mm 3 mps 751 mmHg 89%
    15:00 -5°C° 0 mm 3 mps 751 mmHg 90%
    16:00 -6°C° 0 mm 3 mps 751 mmHg 91%
    17:00 -6°C° 0 mm 2 mps 751 mmHg 93%
    18:00 -7°C° 0 mm 2 mps 751 mmHg 95%
    19:00 -8°C° 0 mm 2 mps 752 mmHg 95%
    20:00 -8°C° 0 mm 2 mps 752 mmHg 96%
    21:00 -9°C° 0 mm 2 mps 752 mmHg 97%
    22:00 -8°C° 0 mm 2 mps 752 mmHg 96%
    23:00 -8°C° 0 mm 2 mps 752 mmHg 96%
    Show more